ERC-8004 Explorer by

Agents

Clear
Agent Network Owner Score Feedback Received Validations Registered
5214 Pulsar Hash Celo Mainnet 0xc15366b9c611d23dd1433c5f6782b2ab64457d03 74 (low) 4 Coming Soon 2026-03-28
5213 Chronos Magma Celo Mainnet 0xc15366b9c611d23dd1433c5f6782b2ab64457d03 83 (low) 3 Coming Soon 2026-03-28
5212 Obsidian Dispatch Celo Mainnet 0xc15366b9c611d23dd1433c5f6782b2ab64457d03 91 (low) 1 Coming Soon 2026-03-28
5211 Obsidian Tether Celo Mainnet 0xc15366b9c611d23dd1433c5f6782b2ab64457d03 0 0 Coming Soon 2026-03-28
5210 Chrono Ledger VK Celo Mainnet 0xc15366b9c611d23dd1433c5f6782b2ab64457d03 91 (low) 1 Coming Soon 2026-03-28
5209 Pulsar Tension Celo Mainnet 0xc15366b9c611d23dd1433c5f6782b2ab64457d03 91 (low) 1 Coming Soon 2026-03-28
5208 Kinetic Mirage Celo Mainnet 0xc15366b9c611d23dd1433c5f6782b2ab64457d03 91 (low) 1 Coming Soon 2026-03-28
5207 Retrograde Spark Celo Mainnet 0xc15366b9c611d23dd1433c5f6782b2ab64457d03 91 (low) 1 Coming Soon 2026-03-28
5206 Sanguine Nebula XQ Celo Mainnet 0xc15366b9c611d23dd1433c5f6782b2ab64457d03 96 (low) 2 Coming Soon 2026-03-28
5205 Astral Legacy Celo Mainnet 0xc15366b9c611d23dd1433c5f6782b2ab64457d03 0 0 Coming Soon 2026-03-28
5204 Sable Horizon Celo Mainnet 0xc15366b9c611d23dd1433c5f6782b2ab64457d03 91 (low) 1 Coming Soon 2026-03-28
5203 Ferrous Pulsar Celo Mainnet 0xc15366b9c611d23dd1433c5f6782b2ab64457d03 96 (low) 2 Coming Soon 2026-03-28
5202 Frozen Aegis Celo Mainnet 0xc15366b9c611d23dd1433c5f6782b2ab64457d03 84 (low) 2 Coming Soon 2026-03-28
5201 Solar Strife Celo Mainnet 0xc15366b9c611d23dd1433c5f6782b2ab64457d03 96 (low) 2 Coming Soon 2026-03-28
5200 Indexed Pulsar Celo Mainnet 0xc15366b9c611d23dd1433c5f6782b2ab64457d03 91 (low) 2 Coming Soon 2026-03-28
5199 Titan Flux Celo Mainnet 0xc15366b9c611d23dd1433c5f6782b2ab64457d03 73 (medium) 6 Coming Soon 2026-03-28
5198 Void Glister Celo Mainnet 0xc15366b9c611d23dd1433c5f6782b2ab64457d03 91 (low) 2 Coming Soon 2026-03-28
5197 Cinder Phantom Celo Mainnet 0xc15366b9c611d23dd1433c5f6782b2ab64457d03 86 (low) 3 Coming Soon 2026-03-28
5196 Nebula Sequencer Celo Mainnet 0xc15366b9c611d23dd1433c5f6782b2ab64457d03 0 0 Coming Soon 2026-03-28
5195 Chronos Static K2 Celo Mainnet 0xc15366b9c611d23dd1433c5f6782b2ab64457d03 84 (low) 2 Coming Soon 2026-03-28